TimeEST,TemperatureF,Dew PointF,Humidity,Sea Level PressureIn,VisibilityMPH,Wind Direction,Wind SpeedMPH,Gust SpeedMPH,PrecipitationIn,Events,Conditions,WindDirDegrees,DateUTC
12:15 AM,32.0,28.4,87,30.23,10.0,Calm,Calm,-,N/A,,Overcast,0,2013-02-26 05:15:00
12:35 AM,30.2,28.4,93,30.24,10.0,Calm,Calm,-,N/A,,Overcast,0,2013-02-26 05:35:00
12:55 AM,32.0,28.4,87,30.25,10.0,Calm,Calm,-,N/A,,Overcast,0,2013-02-26 05:55:00
1:15 AM,32.0,28.4,87,30.25,10.0,Calm,Calm,-,N/A,,Overcast,0,2013-02-26 06:15:00
1:35 AM,30.2,28.4,93,30.26,10.0,Calm,Calm,-,N/A,,Overcast,0,2013-02-26 06:35:00
1:55 AM,30.2,28.4,93,30.25,10.0,Calm,Calm,-,N/A,,Overcast,0,2013-02-26 06:55:00
2:15 AM,30.2,28.4,93,30.25,10.0,Calm,Calm,-,N/A,,Overcast,0,2013-02-26 07:15:00
2:35 AM,30.2,28.4,93,30.25,10.0,Calm,Calm,-,N/A,,Overcast,0,2013-02-26 07:35:00
2:55 AM,30.2,28.4,93,30.25,10.0,Calm,Calm,-,N/A,,Overcast,0,2013-02-26 07:55:00
3:15 AM,30.2,28.4,93,30.26,10.0,Calm,Calm,-,N/A,,Overcast,0,2013-02-26 08:15:00
3:35 AM,30.2,28.4,93,30.26,10.0,North,3.5,-,N/A,,Overcast,360,2013-02-26 08:35:00
3:55 AM,30.2,28.4,93,30.28,10.0,Calm,Calm,-,N/A,,Overcast,0,2013-02-26 08:55:00
4:15 AM,30.2,28.4,93,30.29,10.0,Calm,Calm,-,N/A,,Overcast,0,2013-02-26 09:15:00
4:35 AM,30.2,28.4,93,30.29,10.0,Calm,Calm,-,N/A,,Overcast,0,2013-02-26 09:35:00
4:55 AM,30.2,26.6,86,30.29,10.0,Calm,Calm,-,N/A,,Overcast,0,2013-02-26 09:55:00
5:15 AM,30.2,26.6,86,30.29,10.0,Calm,Calm,-,N/A,,Overcast,0,2013-02-26 10:15:00
5:35 AM,28.4,26.6,93,30.30,10.0,Calm,Calm,-,N/A,,Overcast,0,2013-02-26 10:35:00
6:15 AM,30.2,26.6,86,30.31,10.0,Calm,Calm,-,N/A,,Overcast,0,2013-02-26 11:15:00
6:35 AM,30.2,26.6,86,30.32,10.0,Calm,Calm,-,N/A,,Overcast,0,2013-02-26 11:35:00
6:55 AM,30.2,28.4,93,30.32,10.0,Calm,Calm,-,N/A,,Overcast,0,2013-02-26 11:55:00
7:15 AM,30.2,28.4,93,30.33,7.0,Calm,Calm,-,N/A,,Overcast,0,2013-02-26 12:15:00
7:35 AM,30.2,28.4,93,30.35,9.0,Calm,Calm,-,N/A,,Overcast,0,2013-02-26 12:35:00
7:55 AM,30.2,28.4,93,30.33,10.0,Calm,Calm,-,N/A,,Overcast,0,2013-02-26 12:55:00
8:15 AM,30.2,28.4,93,30.34,10.0,Calm,Calm,-,N/A,,Mostly Cloudy,0,2013-02-26 13:15:00
8:35 AM,33.8,28.4,81,30.34,10.0,Calm,Calm,-,N/A,,Partly Cloudy,0,2013-02-26 13:35:00
8:55 AM,37.4,28.4,70,30.35,10.0,Calm,Calm,-,N/A,,Clear,0,2013-02-26 13:55:00
9:15 AM,37.4,28.4,70,30.35,10.0,Calm,Calm,-,N/A,,Clear,0,2013-02-26 14:15:00
9:35 AM,37.4,24.8,60,30.36,10.0,NNE,4.6,-,N/A,,Clear,20,2013-02-26 14:35:00
9:55 AM,37.4,24.8,60,30.35,10.0,North,5.8,-,N/A,,Mostly Cloudy,360,2013-02-26 14:55:00
10:15 AM,37.4,23.0,56,30.35,10.0,North,6.9,-,N/A,,Overcast,10,2013-02-26 15:15:00
10:35 AM,37.4,23.0,56,30.35,10.0,NE,5.8,-,N/A,,Overcast,40,2013-02-26 15:35:00
10:55 AM,39.2,23.0,52,30.37,10.0,ENE,3.5,-,N/A,,Overcast,70,2013-02-26 15:55:00
11:15 AM,39.2,23.0,52,30.36,10.0,East,3.5,-,N/A,,Overcast,90,2013-02-26 16:15:00
11:35 AM,42.8,24.8,49,30.35,10.0,Calm,Calm,-,N/A,,Overcast,0,2013-02-26 16:35:00
11:55 AM,39.2,23.0,52,30.33,10.0,Calm,Calm,-,N/A,,Overcast,0,2013-02-26 16:55:00
12:15 PM,39.2,21.2,49,30.32,10.0,NE,6.9,-,N/A,,Overcast,40,2013-02-26 17:15:00
12:35 PM,39.2,21.2,49,30.32,10.0,NE,4.6,-,N/A,,Overcast,50,2013-02-26 17:35:00
12:55 PM,39.2,23.0,52,30.31,10.0,Calm,Calm,-,N/A,,Overcast,0,2013-02-26 17:55:00
1:15 PM,39.2,21.2,49,30.32,10.0,North,4.6,-,N/A,,Overcast,360,2013-02-26 18:15:00
1:35 PM,39.2,21.2,49,30.30,10.0,Calm,Calm,-,N/A,,Overcast,0,2013-02-26 18:35:00
1:55 PM,41.0,21.2,45,30.32,10.0,Calm,Calm,-,N/A,,Overcast,0,2013-02-26 18:55:00
2:15 PM,42.8,21.2,42,30.32,10.0,Calm,Calm,-,N/A,,Overcast,0,2013-02-26 19:15:00
2:35 PM,41.0,21.2,45,30.32,10.0,Calm,Calm,-,N/A,,Overcast,0,2013-02-26 19:35:00
2:55 PM,39.2,21.2,49,30.31,10.0,SE,3.5,-,N/A,,Overcast,130,2013-02-26 19:55:00
3:15 PM,39.2,23.0,52,30.30,10.0,Calm,Calm,-,N/A,,Overcast,0,2013-02-26 20:15:00
3:35 PM,39.2,23.0,52,30.30,10.0,SSE,4.6,-,N/A,,Overcast,160,2013-02-26 20:35:00
3:55 PM,37.4,26.6,65,30.30,10.0,South,5.8,-,N/A,,Overcast,170,2013-02-26 20:55:00
4:15 PM,37.4,26.6,65,30.30,10.0,SSE,5.8,-,N/A,,Overcast,160,2013-02-26 21:15:00
4:35 PM,37.4,26.6,65,30.29,10.0,South,6.9,-,N/A,,Overcast,180,2013-02-26 21:35:00
4:55 PM,37.4,26.6,65,30.30,10.0,SSE,4.6,-,N/A,,Overcast,160,2013-02-26 21:55:00
5:15 PM,37.4,24.8,60,30.29,10.0,SSE,6.9,-,N/A,,Overcast,160,2013-02-26 22:15:00
5:35 PM,35.6,26.6,70,30.29,10.0,South,4.6,-,N/A,,Overcast,180,2013-02-26 22:35:00
5:55 PM,35.6,24.8,65,30.29,10.0,SSE,4.6,-,N/A,,Overcast,150,2013-02-26 22:55:00
6:15 PM,35.6,24.8,65,30.29,10.0,SE,4.6,-,N/A,,Overcast,140,2013-02-26 23:15:00
6:35 PM,35.6,24.8,65,30.29,10.0,SSE,4.6,-,N/A,,Overcast,150,2013-02-26 23:35:00
6:55 PM,35.6,24.8,65,30.30,10.0,SSE,5.8,-,N/A,,Overcast,160,2013-02-26 23:55:00
7:15 PM,35.6,24.8,65,30.30,10.0,South,4.6,-,N/A,,Overcast,180,2013-02-27 00:15:00
7:35 PM,35.6,24.8,65,30.29,10.0,Calm,Calm,-,N/A,,Overcast,0,2013-02-27 00:35:00
7:55 PM,35.6,24.8,65,30.30,10.0,East,4.6,-,N/A,,Overcast,80,2013-02-27 00:55:00
8:15 PM,35.6,24.8,65,30.31,10.0,East,3.5,-,N/A,,Overcast,90,2013-02-27 01:15:00
8:35 PM,33.8,26.6,75,30.32,10.0,Calm,Calm,-,N/A,,Overcast,0,2013-02-27 01:35:00
8:55 PM,33.8,26.6,75,30.31,10.0,Calm,Calm,-,N/A,,Overcast,0,2013-02-27 01:55:00
9:15 PM,33.8,26.6,75,30.31,10.0,Calm,Calm,-,N/A,,Overcast,0,2013-02-27 02:15:00
9:35 PM,33.8,26.6,75,30.30,10.0,Calm,Calm,-,N/A,,Overcast,0,2013-02-27 02:35:00
9:55 PM,32.0,26.6,80,30.29,10.0,Calm,Calm,-,N/A,,Overcast,0,2013-02-27 02:55:00
10:15 PM,30.2,26.6,86,30.27,10.0,Calm,Calm,-,N/A,,Mostly Cloudy,0,2013-02-27 03:15:00
10:35 PM,30.2,26.6,86,30.27,10.0,Calm,Calm,-,N/A,,Partly Cloudy,0,2013-02-27 03:35:00
10:55 PM,30.2,26.6,86,30.27,10.0,Calm,Calm,-,N/A,,Clear,0,2013-02-27 03:55:00
11:15 PM,28.4,24.8,86,30.26,10.0,ENE,3.5,-,N/A,,Clear,60,2013-02-27 04:15:00
11:35 PM,28.4,24.8,86,30.25,10.0,Calm,Calm,-,N/A,,Clear,0,2013-02-27 04:35:00
11:55 PM,28.4,24.8,86,30.24,10.0,North,3.5,-,N/A,,Clear,360,2013-02-27 04:55:00